Wheeler AAF, HI

5:45 PM HST on November 17, 2017 (GMT -1000)
Wheeler Army Air Field

Weather History for PHHI - March, 2014

Change the Weather History Date:

Thursday, March 20, 2014

  Actual Average Record
Temperature  
Mean Temperature 68 °F -  
Max Temperature 77 °F 74 °F 80 °F (2017)
Min Temperature 58 °F 60 °F 55 °F (2001)
Cooling Degree Days 2    
Growing Degree Days 18 (Base 50)    
Moisture  
Dew Point 59 °F    
Average Humidity 76    
Maximum Humidity 94    
Minimum Humidity 56    
Precipitation  
Precipitation 0.00 in - - ()
Sea Level Pressure  
Sea Level Pressure 30.01 in    
Wind  
Wind Speed 6 mph (NNW)    
Max Wind Speed 15 mph    
Max Gust Speed 23 mph    
Visibility 10 miles    
Events      
Averages and records for this station are not official NWS values.
T = Trace of Precipitation, MM = Missing Value Source: NWS Daily Summary

Daily Weather History Graph

Daily Weather History Graph

Search for Another Location

Airport or City:

Trip Planner

Search our weather history database for the weather conditions in past years. The results will help you decide how hot, cold, wet, or windy it might be!

Date:

Astronomy

Mar. 20, 2014 Rise Set
Actual Time 6:35 AM HST 6:43 PM HST
Civil Twilight 6:13 AM HST 7:05 PM HST
Nautical Twilight 5:47 AM HST 7:31 PM HST
Astronomical Twilight 5:22 AM HST 7:57 PM HST
Moon 10:42 PM HST (3/20) 9:19 AM HST (3/20)
Length of Visible Light 12h 51m
Length of Day
12h 07m
Waning Gibbous, 82% of the Moon is Illuminated
Mar 20
Waning Gibbous
Mar 23
Last Quarter
Mar 30
New
Apr 6
First Quarter
Apr 14
Full

Hourly Weather History & Observations

Time (HST) Temp. Dew Point Humidity Pressure Visibility Wind Dir Wind Speed Gust Speed Precip Events Conditions
12:58 AM 59.4 °F 57.0 °F 92% 30.00 in 10.0 mi WNW 4.6 mph - N/A   Clear
1:58 AM 59.7 °F 57.0 °F 91% 29.99 in 10.0 mi NW 5.8 mph - N/A   Clear
2:58 AM 58.8 °F 56.3 °F 91% 29.97 in 10.0 mi WNW 3.5 mph - N/A   Clear
3:58 AM 59.2 °F 56.5 °F 91% 29.96 in 10.0 mi Variable 2.3 mph - N/A   Clear
4:48 AM 59.0 °F 57.2 °F 94% 29.98 in 10.0 mi WNW 4.6 mph - N/A   Mostly Cloudy
4:53 AM 60.8 °F 57.2 °F 88% 29.98 in 10.0 mi NW 4.6 mph - N/A   Scattered Clouds
4:58 AM 60.1 °F 57.0 °F 90% 29.96 in 10.0 mi NW 4.6 mph - N/A   Scattered Clouds
5:58 AM 61.9 °F 57.7 °F 86% 29.99 in 10.0 mi NW 5.8 mph - N/A   Mostly Cloudy
6:03 AM 62.6 °F 57.2 °F 82% 30.00 in 10.0 mi NW 5.8 mph - N/A   Mostly Cloudy
6:18 AM 62.6 °F 57.2 °F 82% 30.00 in 10.0 mi WNW 5.8 mph - N/A   Mostly Cloudy
6:23 AM 62.6 °F 57.2 °F 82% 30.01 in 10.0 mi WNW 5.8 mph - N/A   Mostly Cloudy
6:33 AM 62.6 °F 57.2 °F 82% 30.01 in 10.0 mi NW 4.6 mph - N/A   Mostly Cloudy
6:38 AM 62.6 °F 57.2 °F 82% 30.01 in 10.0 mi NW 4.6 mph - N/A   Mostly Cloudy
6:43 AM 62.6 °F 59.0 °F 88% 30.01 in 10.0 mi NW 2.3 mph - N/A   Mostly Cloudy
6:53 AM 62.6 °F 57.2 °F 82% 30.01 in 10.0 mi NW 4.6 mph - N/A   Mostly Cloudy
6:58 AM 62.4 °F 58.1 °F 86% 30.00 in 10.0 mi NW 4.6 mph - N/A   Mostly Cloudy
7:13 AM 64.4 °F 59.0 °F 83% 30.02 in 10.0 mi NW 4.6 mph - N/A   Mostly Cloudy
7:58 AM 66.6 °F 60.6 °F 81% 30.01 in 10.0 mi WNW 5.8 mph - N/A   Clear
8:48 AM 69.8 °F 62.6 °F 78% 30.05 in 10.0 mi North 5.8 mph - N/A   Mostly Cloudy
8:53 AM 69.8 °F 60.8 °F 73% 30.05 in 10.0 mi North 4.6 mph - N/A   Mostly Cloudy
8:58 AM 70.3 °F 61.3 °F 73% 30.02 in 10.0 mi Variable 4.6 mph - N/A   Mostly Cloudy
9:58 AM 73.9 °F 60.6 °F 63% 30.04 in 10.0 mi ENE 10.4 mph - N/A   Partly Cloudy
10:13 AM 75.2 °F 60.8 °F 61% 30.06 in 10.0 mi ENE 8.1 mph - N/A   Mostly Cloudy
10:23 AM 75.2 °F 60.8 °F 61% 30.05 in 10.0 mi NE 8.1 mph - N/A   Mostly Cloudy
10:28 AM 73.4 °F 60.8 °F 65% 30.05 in 10.0 mi NE 15.0 mph - N/A   Mostly Cloudy
10:38 AM 73.4 °F 60.8 °F 65% 30.05 in 10.0 mi ENE 12.7 mph - N/A   Mostly Cloudy
10:58 AM 73.9 °F 60.4 °F 63% 30.04 in 10.0 mi ENE 10.4 mph - N/A   Scattered Clouds
11:58 AM 73.8 °F 59.7 °F 61% 30.04 in 10.0 mi NE 10.4 mph - N/A   Mostly Cloudy
12:58 PM 76.6 °F 60.8 °F 58% 30.00 in 10.0 mi NE 11.5 mph - N/A   Partly Cloudy
1:58 PM 75.9 °F 60.4 °F 59% 29.99 in 10.0 mi East 12.7 mph 19.6 mph N/A   Mostly Cloudy
2:58 PM 77.4 °F 60.8 °F 57% 29.97 in 10.0 mi ENE 15.0 mph 23.0 mph N/A   Clear
3:58 PM 76.5 °F 59.9 °F 56% 29.97 in 10.0 mi NE 13.8 mph - N/A   Clear
4:58 PM 74.8 °F 59.7 °F 59% 29.99 in 10.0 mi ENE 13.8 mph - N/A   Clear
5:58 PM 71.8 °F 60.4 °F 67% 29.99 in 10.0 mi NE 10.4 mph - N/A   Clear
6:58 PM 70.3 °F 61.3 °F 73% 30.02 in 10.0 mi NNE 6.9 mph - N/A   Clear
7:58 PM 68.7 °F 61.2 °F 77% 30.04 in 10.0 mi NNW 5.8 mph - N/A   Clear
8:58 PM 67.6 °F 61.7 °F 81% 30.05 in 10.0 mi NW 4.6 mph - N/A   Clear
9:58 PM 66.9 °F 61.2 °F 82% 30.06 in 10.0 mi WNW 5.8 mph - N/A   Partly Cloudy
10:58 PM 63.9 °F 60.4 °F 89% 30.06 in 10.0 mi WNW 5.8 mph - N/A   Clear
11:58 PM 64.8 °F 60.3 °F 85% 30.06 in 10.0 mi NNW 5.8 mph - N/A   Clear